INSAT-3DR (41752 NORAD) Tracking and Keplerian Element Data

This shows tracking and keplerian element data for the satellite.

Feedback or suggestion? Click here.




ElementValue
Catalog41752
NameINSAT-3DR
Epoch Orbit748
Epoch Day265.78993741
Epoch Year2018
RAAN104.0737
Inclination0.0543
Eccentricity0.0006904
Argument of Perigee162.199
Mean Anonmoly93.6639
Mean Motion1.00273293
Decay Rate-9E-07
L11 41752U 16054A 18265.78993741 -.00000090 00000-0 00000-0 0 9995
L22 41752 0.0543 104.0737 0006904 162.1990 93.6639 1.00273293 7484

Live tracking and technical data element details for INSAT-3DR (NORAD 41752). INSAT-3DR can be tracked NOW for your location showing map with azimuth and elevation plus other details from your city location.

Track the satellite on the map from your city or location and see movement details for azimuth, elevation, latitude, longitude, range, height, and movement on the map or in text.







IsCatalogInMostPopularTable: catalog: 41752, numindb: 107
Update: records affected: 1



GetName: 41752 INSAT-3DR

Hit Count: updated at: Tue, 25 Sep 2018 15:48:09 GMT